Location: Knowlton
(51.2333°N, 1.2667°E)
Time: 03:28:48
(UTC+00:00)

Cosmos 2297 Rocket - Pass Details

Date: 18 April 2021
Orbit: 838 x 844 km, 71.0° (Epoch: 06 May)

Event Time Altitude Azimuth Distance (km) Brightness Sun altitude
Exits shadow 21:43:43 - 213° (SSW) 2,567 4.5 -21.5°
Reaches altitude 10° 21:44:01 10° 214° (SSW) 2,453 4.4 -21.5°
Maximum altitude 21:49:39 79° 301° (WNW) 863 2.2 -22.0°
Drops below altitude 10° 21:55:21 10° 29° (NNE) 2,473 5.0 -22.5°
Sets 21:57:49 0° 30° (NNE) 3,412 5.7 -22.7°
